Location: Staunton
(38.1490°N, 79.0720°W)
Time: 14:41:32
(UTC-04:00)

N. Korean satellite - Pass Details

Date: 27 September 2021
Orbit: 450 x 495 km, 97.3° (Epoch: 15 October)

Event Time Altitude Azimuth Distance (km) Brightness Sun altitude
Rises 06:26:36 0° 13° (NNE) 2,534 10.5 -9.1°
Reaches altitude 10° 06:28:40 10° 15° (NNE) 1,659 9.5 -8.7°
Maximum altitude 06:32:14 77° 101° (E) 501 6.7 -8.0°
Drops below altitude 10° 06:35:49 10° 188° (S) 1,670 9.2 -7.3°
Sets 06:37:54 0° 190° (S) 2,552 10.1 -6.9°
